,,PA_Meas_PMT16A,,PR_Meas_QMR101_102,,RH_Meas_QMH101,,SR_Meas_QMS101,,TA_Meas_QMH101,,GenWind,,GenWind,
time,status,PA,status,PR,status,RH,status,SR,status,TA,status,DirAvg,status,SpdAvg,
2014-02-16, 07:33:04,VALID,918.153,VALID,0,VALID,90.3299,VALID,47.3815,VALID,18.9062,VALID,148,VALID,0.989844,
2014-02-16, 07:34:04,VALID,918.17,VALID,0,VALID,90.1698,VALID,48.6708,VALID,18.8853,VALID,153,VALID,1.34883,
2014-02-16, 07:35:04,VALID,918.186,VALID,0,VALID,90.185,VALID,49.8527,VALID,18.8867,VALID,165,VALID,1.31523,
2014-02-16, 07:36:04,VALID,918.176,VALID,0,VALID,90.2994,VALID,51.2494,VALID,18.8282,VALID,156,VALID,1.23086,
2014-02-16, 07:37:04,VALID,918.204,VALID,0,VALID,90.6043,VALID,54.4727,VALID,18.7474,VALID,152,VALID,1.38086,
2014-02-16, 07:38:04,VALID,918.22,VALID,0,VALID,90.8178,VALID,57.8033,VALID,18.6875,VALID,167,VALID,0.91875,
2014-02-16, 07:39:04,VALID,918.236,VALID,0,VALID,90.9931,VALID,60.4894,VALID,18.7726,VALID,166,VALID,0.758203,
2014-02-16, 07:40:04,VALID,918.25,VALID,0,VALID,91.077,VALID,63.9275,VALID,18.7322,VALID,150,VALID,0.9875,
2014-02-16, 07:41:04,VALID,918.251,VALID,0,VALID,91.1532,VALID,69.6219,VALID,18.6095,VALID,168,VALID,1.4168,
2014-02-16, 07:42:04,VALID,918.233,VALID,0,VALID,91.3819,VALID,75.8535,VALID,18.6513,VALID,161,VALID,1.09805,
2014-02-16, 07:43:04,VALID,918.277,VALID,0,VALID,91.542,VALID,83.9115,VALID,18.5496,VALID,149,VALID,1.57344,
2014-02-16, 07:44:04,VALID,918.274,VALID,0,VALID,91.6945,VALID,90.8952,VALID,18.5914,VALID,163,VALID,1.42148,
2014-02-16, 07:45:04,VALID,918.299,VALID,0,VALID,91.6868,VALID,95.0854,VALID,18.6708,VALID,172,VALID,1.47969,
2014-02-16, 07:46:04,VALID,918.325,VALID,0,VALID,91.603,VALID,97.9863,VALID,18.6666,VALID,167,VALID,1.59727,
2014-02-16, 07:47:04,VALID,918.364,VALID,0,VALID,91.4886,VALID,104.003,VALID,18.707,VALID,160,VALID,1.1793,
2014-02-16, 07:48:04,VALID,918.343,VALID,0,VALID,91.298,VALID,113.78,VALID,18.746,VALID,152,VALID,1.51523,
2014-02-16, 07:49:04,VALID,918.399,VALID,0,VALID,91.1913,VALID,129.359,VALID,18.8882,VALID,150,VALID,1.08789,
2014-02-16, 07:50:04,VALID,918.398,VALID,0,VALID,91.0998,VALID,139.781,VALID,18.99,VALID,165,VALID,1.13086,
2014-02-16, 07:51:04,VALID,918.406,VALID,0,VALID,90.955,VALID,143.649,VALID,19.0052,VALID,145,VALID,1.50117,
2014-02-16, 07:52:04,VALID,918.468,VALID,0,VALID,90.7034,VALID,142.682,VALID,19.0218,VALID,143,VALID,1.42773,
2014-02-16, 07:53:04,VALID,918.463,VALID,0,VALID,90.4061,VALID,135.483,VALID,19.0803,VALID,161,VALID,1.47266,
2014-02-16, 07:54:04,VALID,918.48,VALID,0,VALID,90.0325,VALID,128.929,VALID,19.0774,VALID,163,VALID,2.37969,
2014-02-16, 07:55:04,VALID,918.477,VALID,0,VALID,89.8038,VALID,131.508,VALID,19.0788,VALID,162,VALID,1.89414,
2014-02-16, 07:56:04,VALID,918.493,VALID,0,VALID,89.8648,VALID,143.219,VALID,19.0983,VALID,172,VALID,1.49063,
2014-02-16, 07:57:04,VALID,918.527,VALID,0,VALID,89.6971,VALID,158.153,VALID,19.1178,VALID,148,VALID,1.54414,
2014-02-16, 07:58:04,VALID,918.513,VALID,0,VALID,89.7047,VALID,168.683,VALID,19.1778,VALID,140,VALID,1.4793,
2014-02-16, 07:59:04,VALID,918.537,VALID,0,VALID,89.4532,VALID,174.914,VALID,19.1763,VALID,156,VALID,1.49453,
2014-02-16, 08:00:04,VALID,918.548,VALID,0,VALID,89.3236,VALID,185.658,VALID,19.2753,VALID,159,VALID,1.60586,
2014-02-16, 08:01:04,VALID,918.553,VALID,0,VALID,89.1406,VALID,196.617,VALID,19.3577,VALID,159,VALID,1.72656,
2014-02-16, 08:02:04,VALID,918.55,VALID,0,VALID,88.9805,VALID,200.055,VALID,19.3547,VALID,160,VALID,1.98516,
2014-02-16, 08:03:04,VALID,918.581,VALID,0,VALID,89.0872,VALID,203.494,VALID,19.3698,VALID,160,VALID,1.82305,
2014-02-16, 08:04:04,VALID,918.618,VALID,0,VALID,88.7442,VALID,207.576,VALID,19.3698,VALID,156,VALID,2.05156,
2014-02-16, 08:05:04,VALID,918.615,VALID,0,VALID,88.5841,VALID,207.791,VALID,19.4942,VALID,168,VALID,1.65859,
2014-02-16, 08:06:04,VALID,918.624,VALID,0,VALID,88.2487,VALID,200.485,VALID,19.4313,VALID,159,VALID,2.3332,
2014-02-16, 08:07:04,VALID,918.652,VALID,0,VALID,88.1877,VALID,196.402,VALID,19.4883,VALID,161,VALID,2.37812,
2014-02-16, 08:08:04,VALID,918.634,VALID,0,VALID,88.2715,VALID,200.055,VALID,19.5288,VALID,165,VALID,1.78867,
2014-02-16, 08:09:04,VALID,918.636,VALID,0,VALID,88.2944,VALID,199.626,VALID,19.5873,VALID,157,VALID,1.76328,
2014-02-16, 08:10:04,VALID,918.637,VALID,0,VALID,88.3097,VALID,207.684,VALID,19.6233,VALID,158,VALID,1.49258,
2014-02-16, 08:11:04,VALID,918.649,VALID,0,VALID,87.6922,VALID,206.609,VALID,19.6818,VALID,152,VALID,1.74727,
2014-02-16, 08:12:04,VALID,918.654,VALID,0,VALID,87.5016,VALID,206.609,VALID,19.9218,VALID,170,VALID,1.79922,
2014-02-16, 08:13:04,VALID,918.66,VALID,0,VALID,87.2424,VALID,212.196,VALID,19.8408,VALID,168,VALID,1.29336,
2014-02-16, 08:14:04,VALID,918.686,VALID,0,VALID,86.9374,VALID,219.932,VALID,19.9563,VALID,155,VALID,1.04453,
2014-02-16, 08:15:04,VALID,918.666,VALID,0,VALID,86.4648,VALID,221.973,VALID,20.0959,VALID,159,VALID,1.42383,
2014-02-16, 08:16:04,VALID,918.659,VALID,0,VALID,86.0531,VALID,223.907,VALID,20.1498,VALID,162,VALID,1.65273,
2014-02-16, 08:17:04,VALID,918.721,VALID,0,VALID,85.4966,VALID,227.56,VALID,20.1888,VALID,142,VALID,1.38594,
2014-02-16, 08:18:04,VALID,918.733,VALID,0,VALID,85.672,VALID,236.048,VALID,20.3705,VALID,139,VALID,1.28437,
2014-02-16, 08:19:04,VALID,918.754,VALID,0,VALID,85.3899,VALID,241.743,VALID,20.3448,VALID,170,VALID,1.51875,
2014-02-16, 08:20:04,VALID,918.758,VALID,0,VALID,84.7038,VALID,243.569,VALID,20.3417,VALID,160,VALID,1.67227,
2014-02-16, 08:21:04,VALID,918.808,VALID,0,VALID,85.1536,VALID,244.966,VALID,20.4813,VALID,154,VALID,1.18984,
2014-02-16, 08:22:04,VALID,918.814,VALID,0,VALID,84.5589,VALID,243.354,VALID,20.5219,VALID,142,VALID,1.83359,
2014-02-16, 08:23:04,VALID,918.85,VALID,0,VALID,84.1778,VALID,241.205,VALID,20.5578,VALID,162,VALID,1.58047,
2014-02-16, 08:24:04,VALID,918.872,VALID,0,VALID,84.315,VALID,248.189,VALID,20.6046,VALID,148,VALID,1.92344,
2014-02-16, 08:25:04,VALID,918.858,VALID,0,VALID,84.4446,VALID,250.016,VALID,20.5445,VALID,154,VALID,1.42422,
2014-02-16, 08:26:04,VALID,918.874,VALID,0,VALID,84.1549,VALID,258.181,VALID,20.5266,VALID,162,VALID,1.69141,
2014-02-16, 08:27:04,VALID,918.89,VALID,0,VALID,84.5284,VALID,266.454,VALID,20.4977,VALID,170,VALID,1.93125,
2014-02-16, 08:28:04,VALID,918.9,VALID,0,VALID,83.9262,VALID,253.776,VALID,20.5383,VALID,166,VALID,1.99219,
2014-02-16, 08:29:04,VALID,918.923,VALID,0,VALID,84.3074,VALID,232.395,VALID,20.6585,VALID,152,VALID,1.2957,
2014-02-16, 08:30:04,VALID,918.906,VALID,0,VALID,84.1854,VALID,226.486,VALID,20.7381,VALID,153,VALID,1.07266,
2014-02-16, 08:31:04,VALID,918.929,VALID,0,VALID,83.6441,VALID,209.725,VALID,20.7544,VALID,164,VALID,2.05664,
2014-02-16, 08:32:04,VALID,918.929,VALID,0,VALID,83.2706,VALID,205.32,VALID,20.795,VALID,153,VALID,1.43125,
2014-02-16, 08:33:04,VALID,918.946,VALID,0,VALID,83.2934,VALID,204.246,VALID,20.8145,VALID,163,VALID,1.59805,
2014-02-16, 08:34:04,VALID,918.99,VALID,0,VALID,83.4459,VALID,208.114,VALID,20.8356,VALID,173,VALID,1.775,
2014-02-16, 08:35:04,VALID,918.998,VALID,0,VALID,83.789,VALID,197.907,VALID,20.8778,VALID,173,VALID,1.52539,
2014-02-16, 08:36:04,VALID,919.005,VALID,0,VALID,84.0787,VALID,193.502,VALID,20.7934,VALID,170,VALID,1.17383,
2014-02-16, 08:37:04,VALID,919.028,VALID,0,VALID,83.5145,VALID,195.973,VALID,20.8794,VALID,137,VALID,2.64375,
2014-02-16, 08:38:04,VALID,919.027,VALID,0,VALID,83.7737,VALID,227.883,VALID,20.7997,VALID,141,VALID,2.13125,
2014-02-16, 08:39:04,VALID,919.021,VALID,0,VALID,84.1396,VALID,212.519,VALID,20.8356,VALID,155,VALID,1.74063,
2014-02-16, 08:40:04,VALID,919.025,VALID,0,VALID,83.5984,VALID,178.245,VALID,20.795,VALID,145,VALID,2.15195,
2014-02-16, 08:41:04,VALID,919.008,VALID,0,VALID,84.3607,VALID,205.427,VALID,20.7138,VALID,165,VALID,1.57734,
2014-02-16, 08:42:04,VALID,919.033,VALID,0,VALID,84.6275,VALID,248.619,VALID,20.7739,VALID,142,VALID,1.35508,
2014-02-16, 08:44:04,VALID,919.053,VALID,0,VALID,83.5298,VALID,243.032,VALID,20.873,VALID,153,VALID,2.01797,
2014-02-16, 08:45:04,VALID,919.109,VALID,0,VALID,84.1778,VALID,247.544,VALID,20.8925,VALID,155,VALID,1.56172,
2014-02-16, 08:46:04,VALID,919.097,VALID,0,VALID,84.0253,VALID,223.692,VALID,20.9347,VALID,156,VALID,1.43711,
2014-02-16, 08:47:04,VALID,919.127,VALID,0,VALID,84.5513,VALID,276.124,VALID,20.912,VALID,121,VALID,1.28164,
2014-02-16, 08:48:04,VALID,919.157,VALID,0,VALID,84.6885,VALID,274.082,VALID,21.0096,VALID,153,VALID,1.17461,
2014-02-16, 08:49:04,VALID,919.176,VALID,0,VALID,84.0405,VALID,266.669,VALID,21.0518,VALID,155,VALID,1.3918,
2014-02-16, 08:50:04,VALID,919.193,VALID,0,VALID,83.8042,VALID,279.562,VALID,21.0908,VALID,159,VALID,2.07617,
2014-02-16, 08:51:04,VALID,919.225,VALID,0,VALID,83.7356,VALID,272.793,VALID,21.008,VALID,187,VALID,1.10664,
2014-02-16, 08:52:04,VALID,919.223,VALID,0,VALID,83.7432,VALID,343.06,VALID,21.0259,VALID,166,VALID,1.27852,
2014-02-16, 08:53:04,VALID,919.217,VALID,0,VALID,83.7661,VALID,412.789,VALID,21.1087,VALID,172,VALID,1.65547,
2014-02-16, 08:54:04,VALID,919.206,VALID,0,VALID,83.3468,VALID,435.029,VALID,21.1852,VALID,174,VALID,1.44531,
2014-02-16, 08:55:04,VALID,919.188,VALID,0,VALID,83.7356,VALID,440.938,VALID,21.299,VALID,161,VALID,0.951563,
2014-02-16, 08:56:04,VALID,919.251,VALID,0,VALID,84.0253,VALID,452.435,VALID,21.4957,VALID,156,VALID,0.858984,
2014-02-16, 08:57:04,VALID,919.264,VALID,0,VALID,82.2872,VALID,466.08,VALID,21.712,VALID,171,VALID,1.72109,
2014-02-16, 08:58:04,VALID,919.303,VALID,0,VALID,81.6544,VALID,475.857,VALID,21.8502,VALID,163,VALID,1.64648,
2014-02-16, 08:59:04,VALID,919.302,VALID,0,VALID,80.7167,VALID,456.195,VALID,21.9283,VALID,173,VALID,0.976563,
2014-02-16, 09:00:04,VALID,919.317,VALID,0,VALID,80.1907,VALID,406.128,VALID,21.9835,VALID,167,VALID,2.41406,
2014-02-16, 09:01:04,VALID,919.318,VALID,0,VALID,80.9226,VALID,447.492,VALID,21.9266,VALID,193,VALID,1.51289,
2014-02-16, 09:02:04,VALID,919.294,VALID,0,VALID,81.1284,VALID,462.642,VALID,21.9623,VALID,173,VALID,0.938281,
2014-02-16, 09:03:04,VALID,919.305,VALID,0,VALID,81.1894,VALID,484.022,VALID,22.1429,VALID,164,VALID,1.15078,
2014-02-16, 09:04:04,VALID,919.318,VALID,0,VALID,80.2517,VALID,495.519,VALID,22.2567,VALID,174,VALID,1.03711,
2014-02-16, 09:05:04,VALID,919.305,VALID,0,VALID,78.1171,VALID,496.271,VALID,22.3754,VALID,163,VALID,1.71406,
2014-02-16, 09:06:04,VALID,919.31,VALID,0,VALID,80.3127,VALID,497.882,VALID,22.3754,VALID,162,VALID,0.958594,
2014-02-16, 09:07:04,VALID,919.319,VALID,0,VALID,77.1185,VALID,487.031,VALID,22.4535,VALID,133,VALID,2.67422,
2014-02-16, 09:08:04,VALID,919.303,VALID,0,VALID,77.3548,VALID,476.394,VALID,22.3347,VALID,167,VALID,1.18594,
2014-02-16, 09:09:04,VALID,919.321,VALID,0,VALID,78.4602,VALID,489.609,VALID,22.4713,VALID,184,VALID,1.07344,
2014-02-16, 09:10:04,VALID,919.34,VALID,0,VALID,77.5454,VALID,503.039,VALID,22.6096,VALID,179,VALID,1.88086,
2014-02-16, 09:11:04,VALID,919.353,VALID,0,VALID,75.9063,VALID,497.023,VALID,22.7055,VALID,163,VALID,1.61523,
2014-02-16, 09:12:04,VALID,919.318,VALID,0,VALID,75.9902,VALID,483.593,VALID,22.6665,VALID,174,VALID,1.91797,
2014-02-16, 09:13:04,VALID,919.3,VALID,0,VALID,76.0359,VALID,482.626,VALID,22.7233,VALID,196,VALID,1.65195,
2014-02-16, 09:14:04,VALID,919.326,VALID,0,VALID,77.1795,VALID,489.824,VALID,22.8404,VALID,163,VALID,1.31836,
2014-02-16, 09:15:04,VALID,919.277,VALID,0,VALID,76.6992,VALID,501.213,VALID,22.7606,VALID,164,VALID,1.71484,
2014-02-16, 09:16:04,VALID,919.297,VALID,0,VALID,76.6382,VALID,502.287,VALID,22.8421,VALID,170,VALID,1.09805,
2014-02-16, 09:17:04,VALID,919.278,VALID,0,VALID,77.0346,VALID,491.328,VALID,22.9397,VALID,158,VALID,1.26602,
2014-02-16, 09:18:04,VALID,919.285,VALID,0,VALID,75.4413,VALID,483.27,VALID,23.0586,VALID,142,VALID,1.37344,
2014-02-16, 09:19:04,VALID,919.283,VALID,0,VALID,75.6243,VALID,466.939,VALID,23.0568,VALID,171,VALID,0.827734,
2014-02-16, 09:20:04,VALID,919.3,VALID,0,VALID,75.3041,VALID,494.122,VALID,22.9983,VALID,159,VALID,1.79258,
2014-02-16, 09:21:04,VALID,919.321,VALID,0,VALID,74.6866,VALID,495.948,VALID,23.0568,VALID,185,VALID,2.40859,
2014-02-16, 09:22:04,VALID,919.353,VALID,0,VALID,75.0068,VALID,497.238,VALID,23.1935,VALID,184,VALID,0.887109,
2014-02-16, 09:23:04,VALID,919.322,VALID,0,VALID,75.0754,VALID,505.725,VALID,23.3088,VALID,153,VALID,0.300781,
2014-02-16, 09:24:04,VALID,919.342,VALID,0,VALID,72.8799,VALID,501.858,VALID,23.4082,VALID,222,VALID,2.88008,
2014-02-16, 09:25:04,VALID,919.293,VALID,0,VALID,73.1848,VALID,503.254,VALID,23.3106,VALID,157,VALID,1.72383,
2014-02-16, 09:26:04,VALID,919.286,VALID,0,VALID,74.5341,VALID,503.254,VALID,23.3674,VALID,148,VALID,0.482031,
2014-02-16, 09:27:04,VALID,919.287,VALID,0,VALID,73.8938,VALID,508.412,VALID,23.6034,VALID,129,VALID,0.4875,
2014-02-16, 09:28:04,VALID,919.275,VALID,0,VALID,71.7973,VALID,514.536,VALID,23.6797,VALID,171,VALID,1.92227,
2014-02-16, 09:29:04,VALID,919.262,VALID,0,VALID,73.8938,VALID,520.982,VALID,23.6992,VALID,112,VALID,0.841797,
2014-02-16, 09:30:04,VALID,919.282,VALID,0,VALID,73.4897,VALID,521.734,VALID,23.6797,VALID,164,VALID,1.48281,
2014-02-16, 09:31:04,VALID,919.263,VALID,0,VALID,73.444,VALID,521.842,VALID,23.7364,VALID,162,VALID,1.09844,
2014-02-16, 09:32:04,VALID,919.274,VALID,0,VALID,70.3717,VALID,531.297,VALID,23.8749,VALID,176,VALID,1.50391,
2014-02-16, 09:33:04,VALID,919.281,VALID,0,VALID,71.2713,VALID,519.908,VALID,23.992,VALID,151,VALID,1.18984,
2014-02-16, 09:34:04,VALID,919.242,VALID,0,VALID,70.6996,VALID,520.23,VALID,23.8163,VALID,147,VALID,3.06016,
2014-02-16, 09:35:04,VALID,919.254,VALID,0,VALID,71.9803,VALID,535.057,VALID,23.6602,VALID,150,VALID,1.61719,
2014-02-16, 09:36:04,VALID,919.247,VALID,0,VALID,72.026,VALID,537.85,VALID,23.74,VALID,183,VALID,1.30742,
2014-02-16, 09:37:04,VALID,919.268,VALID,0,VALID,70.9969,VALID,530.974,VALID,23.8572,VALID,178,VALID,1.24102,
2014-02-16, 09:38:04,VALID,919.263,VALID,0,VALID,72.0565,VALID,536.883,VALID,23.9725,VALID,165,VALID,1.04609,
2014-02-16, 09:39:04,VALID,919.277,VALID,0,VALID,71.4543,VALID,555.041,VALID,24.0506,VALID,98,VALID,1.22266,
2014-02-16, 09:40:04,VALID,919.253,VALID,0,VALID,70.8825,VALID,565.14,VALID,24.1305,VALID,178,VALID,1.54062,
2014-02-16, 09:41:04,VALID,919.269,VALID,0,VALID,70.2345,VALID,573.951,VALID,24.2867,VALID,171,VALID,0.685547,
2014-02-16, 09:42:04,VALID,919.29,VALID,0,VALID,69.1825,VALID,574.166,VALID,24.2849,VALID,168,VALID,1.75039,
2014-02-16, 09:43:04,VALID,919.296,VALID,0,VALID,68.1305,VALID,571.587,VALID,24.2654,VALID,194,VALID,1.15234,
2014-02-16, 09:44:04,VALID,919.353,VALID,0,VALID,69.9753,VALID,559.016,VALID,24.3825,VALID,178,VALID,1.21953,
2014-02-16, 09:45:04,VALID,919.347,VALID,0,VALID,69.8076,VALID,562.025,VALID,24.402,VALID,138,VALID,2.14844,
2014-02-16, 09:46:04,VALID,919.326,VALID,0,VALID,70.4709,VALID,567.504,VALID,24.1092,VALID,123,VALID,1.6207,
2014-02-16, 09:47:04,VALID,919.335,VALID,0,VALID,71.157,VALID,567.826,VALID,24.1873,VALID,145,VALID,1.01445,
2014-02-16, 09:48:04,VALID,919.366,VALID,0,VALID,69.5789,VALID,568.901,VALID,24.1269,VALID,193,VALID,2.18594,
2014-02-16, 09:49:04,VALID,919.379,VALID,0,VALID,69.3731,VALID,567.289,VALID,24.1482,VALID,162,VALID,2.1332,
2014-02-16, 09:50:04,VALID,919.329,VALID,0,VALID,69.4569,VALID,575.992,VALID,24.1287,VALID,179,VALID,1.08203,
2014-02-16, 09:51:04,VALID,919.332,VALID,0,VALID,68.5269,VALID,583.835,VALID,24.2654,VALID,151,VALID,1.69805,
2014-02-16, 09:52:04,VALID,919.356,VALID,0,VALID,68.6794,VALID,588.992,VALID,24.2458,VALID,158,VALID,1.45742,
2014-02-16, 09:53:04,VALID,919.337,VALID,0,VALID,68.626,VALID,583.835,VALID,24.3239,VALID,201,VALID,1.65156,
2014-02-16, 09:54:04,VALID,919.356,VALID,0,VALID,69.0224,VALID,590.389,VALID,24.4411,VALID,167,VALID,1.3293,
2014-02-16, 09:55:04,VALID,919.381,VALID,0,VALID,69.9753,VALID,597.265,VALID,24.5192,VALID,180,VALID,1.82461,
2014-02-16, 09:56:04,VALID,919.32,VALID,0,VALID,67.0251,VALID,568.471,VALID,24.5973,VALID,185,VALID,2.62891,
2014-02-16, 09:57:04,VALID,919.363,VALID,0,VALID,67.3453,VALID,582.116,VALID,24.5582,VALID,158,VALID,1.12852,
2014-02-16, 09:58:04,VALID,919.337,VALID,0,VALID,65.9349,VALID,563.529,VALID,24.5387,VALID,175,VALID,3.36758,
2014-02-16, 09:59:04,VALID,919.332,VALID,0,VALID,67.8255,VALID,536.776,VALID,24.4606,VALID,194,VALID,0.990625,
2014-02-16, 10:00:04,VALID,919.345,VALID,0,VALID,68.4354,VALID,608.654,VALID,24.5192,VALID,128,VALID,1.12031,
2014-02-16, 10:01:04,VALID,919.283,VALID,0,VALID,67.5663,VALID,616.82,VALID,24.4997,VALID,137,VALID,1.64023,
2014-02-16, 10:02:04,VALID,919.324,VALID,0,VALID,67.4901,VALID,617.464,VALID,24.6168,VALID,205,VALID,1.4543,
2014-02-16, 10:03:04,VALID,919.32,VALID,0,VALID,65.973,VALID,626.919,VALID,24.6754,VALID,170,VALID,1.76992,
2014-02-16, 10:04:04,VALID,919.361,VALID,0,VALID,66.1712,VALID,624.233,VALID,24.7144,VALID,161,VALID,2.11055,
2014-02-16, 10:05:04,VALID,919.307,VALID,0,VALID,67.4825,VALID,628.531,VALID,24.7516,VALID,189,VALID,0.377734,
2014-02-16, 10:06:04,VALID,919.304,VALID,0,VALID,66.5295,VALID,625.307,VALID,24.9469,VALID,189,VALID,0.633203,
2014-02-16, 10:07:04,VALID,919.323,VALID,0,VALID,67.4291,VALID,613.811,VALID,24.8474,VALID,161,VALID,1.84492,
2014-02-16, 10:08:04,VALID,919.293,VALID,0,VALID,65.5538,VALID,622.299,VALID,24.9078,VALID,175,VALID,1.45938,
2014-02-16, 10:09:04,VALID,919.302,VALID,0,VALID,65.8892,VALID,627.671,VALID,24.8492,VALID,129,VALID,1.5625,
2014-02-16, 10:10:04,VALID,919.311,VALID,0,VALID,66.9946,VALID,627.456,VALID,24.7321,VALID,160,VALID,1.44805,
2014-02-16, 10:11:04,VALID,919.278,VALID,0,VALID,67.8636,VALID,643.143,VALID,24.8492,VALID,198,VALID,0.4,
2014-02-16, 10:12:04,VALID,919.301,VALID,0,VALID,65.8816,VALID,644.002,VALID,25.0445,VALID,188,VALID,2.09297,
2014-02-16, 10:13:04,VALID,919.317,VALID,0,VALID,65.1421,VALID,635.837,VALID,25.1245,VALID,185,VALID,2.12578,
2014-02-16, 10:14:04,VALID,919.305,VALID,0,VALID,64.0443,VALID,650.878,VALID,25.1636,VALID,190,VALID,1.96719,
2014-02-16, 10:15:04,VALID,919.285,VALID,0,VALID,65.5461,VALID,663.986,VALID,25.0855,VALID,150,VALID,1.49805,
2014-02-16, 10:16:04,VALID,919.313,VALID,0,VALID,64.5856,VALID,679.243,VALID,25.105,VALID,174,VALID,1.50898,
2014-02-16, 10:17:04,VALID,919.332,VALID,0,VALID,63.2439,VALID,637.233,VALID,25.1245,VALID,182,VALID,2.48828,
2014-02-16, 10:18:04,VALID,919.287,VALID,0,VALID,64.9515,VALID,655.928,VALID,25.0074,VALID,159,VALID,2.07969,
2014-02-16, 10:19:04,VALID,919.29,VALID,0,VALID,65.8816,VALID,656.036,VALID,24.9488,VALID,186,VALID,1.11641,
2014-02-16, 10:20:04,VALID,919.284,VALID,0,VALID,63.9605,VALID,667.854,VALID,25.105,VALID,200,VALID,2.64609,
2014-02-16, 10:21:04,VALID,919.28,VALID,0,VALID,64.3035,VALID,674.408,VALID,25.1245,VALID,178,VALID,2.06953,
2014-02-16, 10:22:04,VALID,919.262,VALID,0,VALID,63.6708,VALID,680.102,VALID,25.1831,VALID,177,VALID,1.82617,
2014-02-16, 10:23:04,VALID,919.285,VALID,0,VALID,63.7851,VALID,671.615,VALID,25.2417,VALID,187,VALID,1.87852,
2014-02-16, 10:24:04,VALID,919.268,VALID,0,VALID,66.1255,VALID,675.59,VALID,25.2222,VALID,136,VALID,1.83672,
2014-02-16, 10:25:04,VALID,919.227,VALID,0,VALID,63.9452,VALID,679.995,VALID,25.2027,VALID,166,VALID,0.752344,
2014-02-16, 10:26:04,VALID,919.293,VALID,0,VALID,63.4497,VALID,686.119,VALID,25.1617,VALID,171,VALID,3.15859,
2014-02-16, 10:27:04,VALID,919.227,VALID,0,VALID,63.3735,VALID,682.466,VALID,25.0855,VALID,195,VALID,2.78594,
2014-02-16, 10:28:04,VALID,919.237,VALID,0,VALID,63.4268,VALID,683.648,VALID,25.1636,VALID,190,VALID,2.97773,
2014-02-16, 10:29:04,VALID,919.227,VALID,0,VALID,64.8372,VALID,653.457,VALID,25.2222,VALID,171,VALID,1.65625,
2014-02-16, 10:30:04,VALID,919.204,VALID,0,VALID,64.2883,VALID,699.442,VALID,25.1617,VALID,200,VALID,1.37734,
2014-02-16, 10:31:04,VALID,919.239,VALID,0,VALID,64.0901,VALID,724.153,VALID,25.2222,VALID,172,VALID,2.06406,
2014-02-16, 10:32:04,VALID,919.23,VALID,0,VALID,64.4484,VALID,714.699,VALID,25.2222,VALID,175,VALID,2.58555,
2014-02-16, 10:33:04,VALID,919.243,VALID,0,VALID,64.9363,VALID,706.211,VALID,25.2203,VALID,163,VALID,0.946484,
2014-02-16, 10:34:04,VALID,919.207,VALID,0,VALID,64.8372,VALID,704.599,VALID,25.4351,VALID,182,VALID,1.32461,
2014-02-16, 10:35:04,VALID,919.277,VALID,0,VALID,62.4434,VALID,714.591,VALID,25.5757,VALID,178,VALID,2.74805,
2014-02-16, 10:36:04,VALID,919.235,VALID,0,VALID,61.5667,VALID,726.195,VALID,25.4956,VALID,184,VALID,2.23242,
2014-02-16, 10:37:04,VALID,919.232,VALID,0,VALID,61.1169,VALID,707.822,VALID,25.4937,VALID,200,VALID,2.13438,
2014-02-16, 10:38:04,VALID,919.24,VALID,0,VALID,61.4676,VALID,689.128,VALID,25.5933,VALID,184,VALID,2.7918,
2014-02-16, 10:39:04,VALID,919.187,VALID,0,VALID,61.4447,VALID,728.773,VALID,25.6733,VALID,222,VALID,1.94141,
2014-02-16, 10:40:04,VALID,919.232,VALID,0,VALID,60.4461,VALID,733.393,VALID,25.5913,VALID,192,VALID,2.79219,
2014-02-16, 10:41:04,VALID,919.264,VALID,0,VALID,62.634,VALID,665.383,VALID,25.6909,VALID,172,VALID,1.97617,
2014-02-16, 10:42:04,VALID,919.228,VALID,0,VALID,59.3712,VALID,734.253,VALID,25.687,VALID,188,VALID,2.52656,
2014-02-16, 10:43:04,VALID,919.258,VALID,0,VALID,57.8846,VALID,735.65,VALID,25.646,VALID,188,VALID,2.55039,
2014-02-16, 10:44:04,VALID,919.197,VALID,0,VALID,59.5236,VALID,670.97,VALID,25.6909,VALID,215,VALID,1.82969,
2014-02-16, 10:45:04,VALID,919.21,VALID,0,VALID,60.0878,VALID,669.036,VALID,25.7261,VALID,177,VALID,2.04883,
2014-02-16, 10:46:04,VALID,919.231,VALID,0,VALID,62.7102,VALID,736.079,VALID,25.8452,VALID,171,VALID,1.9793,
2014-02-16, 10:47:04,VALID,919.24,VALID,0,VALID,61.1245,VALID,784.643,VALID,25.7651,VALID,125,VALID,1.69687,
2014-02-16, 10:48:04,VALID,919.224,VALID,0,VALID,61.2389,VALID,777.444,VALID,25.7476,VALID,138,VALID,1.8293,
2014-02-16, 10:49:04,VALID,919.252,VALID,0,VALID,60.3317,VALID,759.609,VALID,25.7066,VALID,58,VALID,1.24688,
2014-02-16, 10:50:04,VALID,919.209,VALID,0,VALID,61.0864,VALID,498.205,VALID,25.8062,VALID,180,VALID,0.467187,
2014-02-16, 10:51:04,VALID,919.181,VALID,0,VALID,60.3393,VALID,535.594,VALID,25.8667,VALID,170,VALID,1.58047,
2014-02-16, 10:52:04,VALID,919.216,VALID,0,VALID,60.7662,VALID,466.832,VALID,25.9234,VALID,188,VALID,0.7875,
2014-02-16, 10:53:04,VALID,919.187,VALID,0,VALID,57.8389,VALID,368.845,VALID,25.8648,VALID,153,VALID,2.13789,
2014-02-16, 10:54:04,VALID,919.167,VALID,0,VALID,59.5465,VALID,245.61,VALID,25.689,VALID,178,VALID,1.15898,
2014-02-16, 10:55:04,VALID,919.151,VALID,0,VALID,59.7828,VALID,229.602,VALID,25.7476,VALID,62,VALID,1.7293,
2014-02-16, 10:56:04,VALID,919.155,VALID,0,VALID,61.9555,VALID,282.248,VALID,25.5737,VALID,67,VALID,1.80469,
2014-02-16, 10:57:04,VALID,919.172,VALID,0,VALID,60.5985,VALID,344.027,VALID,25.3179,VALID,138,VALID,1.80586,
2014-02-16, 10:58:04,VALID,919.177,VALID,0,VALID,62.0927,VALID,410.855,VALID,25.1031,VALID,125,VALID,1.09648,
2014-02-16, 10:59:04,VALID,919.148,VALID,0,VALID,62.977,VALID,559.983,VALID,25.0836,VALID,134,VALID,0.583594,
2014-02-16, 11:00:04,VALID,919.153,VALID,0,VALID,63.4878,VALID,475.964,VALID,25.2808,VALID,153,VALID,0.663672,
2014-02-16, 11:01:04,VALID,919.102,VALID,0,VALID,61.9403,VALID,446.955,VALID,25.5327,VALID,152,VALID,0.382031,
2014-02-16, 11:02:04,VALID,919.131,VALID,0,VALID,63.0075,VALID,747.253,VALID,25.7651,VALID,121,VALID,0.849219,
2014-02-16, 11:03:04,VALID,919.094,VALID,0,VALID,60.9949,VALID,760.468,VALID,25.9429,VALID,94,VALID,1.16211,
2014-02-16, 11:04:04,VALID,919.105,VALID,0,VALID,57.7245,VALID,709.756,VALID,25.9409,VALID,136,VALID,1.92109,
2014-02-16, 11:05:04,VALID,919.102,VALID,0,VALID,60.2631,VALID,636.804,VALID,25.9624,VALID,139,VALID,0.773828,
2014-02-16, 11:06:04,VALID,919.114,VALID,0,VALID,60.6824,VALID,816.875,VALID,26.1773,VALID,170,VALID,0.878906,
2014-02-16, 11:07:04,VALID,919.089,VALID,0,VALID,57.3205,VALID,784.213,VALID,26.4878,VALID,184,VALID,1.22578,
2014-02-16, 11:08:04,VALID,919.059,VALID,0,VALID,56.5429,VALID,740.27,VALID,26.5855,VALID,133,VALID,0.602734,